ブラッドフィールド彗星

C/1995 Q1 ( Bradfiled )

English version
Home page
Updated on August 2, 1996

---------------------------------------------------------------------

・ プロフィール

発見日 1995年8月17日
発見光度 6等
発見者 William A. Bradfield (Australia)

・ 軌道要素

  by Kenji Muraoka,
  from 142 observations  1995 Aug. 18  to  1996 Feb.  7, 
  mean residual is +/- 0.87 arc seconds.

      Epoch  =  1995 Aug. 31.0  TT       JDT = 2449960.5
          T  =  1995 Aug. 31.41846       +/- 0.00004 (m.e.) TT
       Peri. =  331.16166                +/- 0.00032
       Node  =  178.05437                +/- 0.00034   (2000.0)
       Incl. =  147.39420                +/- 0.00003
          q  =    0.4363883              +/- 0.0000020 AU
          e  =    0.9980223              +/- 0.0000023
        1/a  =   +0.0045321              +/- 0.0000052 1/AU

・ 星図

・ 1995年 3月 4日〜1995年 8月11日
・ 1995年 8月 1日〜1995年11月19日
・ 1995年10月10日〜1996年 4月27日

・ 光度変化

        m1 =  7.35 + 5 logΔ + 11.67 log r  [   ,110]  (              〜1995年12月19日)
        m1 = 12.5  + 5 logΔ + 10.0  log r  [110,   ]  (1995年12月19日〜              )

---------------------------------------------------------------------

軌道要素は村岡健治氏の計算によるものです。
星図は StellaNavigator Ver.2.0 for Windows (アストロアーツ 編著 / アスキー出版局刊) で作成したものです。
光度グラフはComet for Windowsで作成したものです。

---------------------------------------------------------------------

Copyright(C) Seiichi Yoshida (comet@aerith.net). All rights reserved.